Tracking 34142 objects as of 18-May-2026
HD Live streaming from Space Station
objects crossing your sky now

CENTISPACE-2 S5

Track CENTISPACE-2 S5 now!
10-day predictions


NORAD ID: 68354
Int'l Code: 2026-060E
Perigee: 645.4 km
Apogee: 665.3 km
Inclination: 55.0 °
Period: 97.7 minutes
Semi major axis: 7026 km
RCS: Unknown
Launch date: March 22, 2026
Source: People's Republic of China (PRC)
Launch site: Yellow Sea Launch Area, China (YSLA)
Your satellite tracking list
Your tracking list is empty




NASA's NSSDC Master Catalog

Two Line Element Set (TLE):
1 68354U 26060E   26137.83655757  .00000056  00000-0  39929-4 0  9992
2 68354  54.9745 159.6552 0014153  76.4903 283.7672 14.74023070  8290
Source of the keplerian elements: AFSPC